Hourly Data Report for January 23, 2017

All times are specified in Local Standard Time (LST). Add 1 hour to adjust for Daylight Saving Time where and when it is observed.

ST LEONARD CS
NEW BRUNSWICK

47°09'28.050" N
67°49'55.014" W
245.00 m
810I001
71019
WIY

Download Data

Hourly Data (January 2017)
Hourly Data Report for January 23, 2017
Temp Definition
°C
Dew Point Temp Definition
°C
Rel Hum Definition
%
Wind Dir Definition
10's deg

Wind Spd Definition
km/h
Visibility Definition
km
Stn Press Definition
kPa
Hmdx Definition


Wind Chill Definition


Weather Definition


TIME
00:00 -4.8 -7.2 83 1 8   99.02   -8 LegendNANA
01:00 -4.9 -7.5 82 1 9   99.01   -9 LegendNANA
02:00 -5.2 -7.8 82 1 8   99.05   -9 LegendNANA
03:00 -5.4 -8.2 80 2 6   99.16   -8 LegendNANA
04:00 -5.6 -8.6 80 3 7   99.20   -9 LegendNANA
05:00 -6.1 -8.6 82 35 7   99.20   -9 LegendNANA
06:00 -6.5 -8.7 84 1 9   99.22   -11 LegendNANA
07:00 -7.1 -9.2 85 36 9   99.23   -11 LegendNANA
08:00 -8.7 -10.1 90 29 4   99.28   -11 LegendNANA
09:00 -9.0 -10.3 90 33 5   99.33   -12 LegendNANA
10:00 -7.7 -10.5 80 35 11   99.30   -13 LegendNANA
11:00 -6.4 -10.5 72 1 11   99.29   -11 LegendNANA
12:00 -4.7 -11.9 57 2 6   99.19   -7 LegendNANA
13:00 -4.7 -11.7 58 30 7   99.18   -8 LegendNANA
14:00 -2.3 -13.8 41 36 5   99.15   -4 LegendNANA
15:00 -1.9 -13.3 41 35 7   99.13   -5 LegendNANA
16:00 -1.7 -14.0 39 3 9   99.11   -5 LegendNANA
17:00 -2.8 -13.0 45 3 5   99.17   -5 LegendNANA
18:00 -3.9 -12.4 52 3 9   99.17   -8 LegendNANA
19:00 -5.2 -12.3 58 4 8   99.19   -9 LegendNANA
20:00 -5.1 -12.0 59 5 9   99.20   -9 LegendNANA
21:00 -7.5 -12.2 69 25 2   99.19   -9 LegendNANA
22:00 -8.6 -12.7 72 3 1   99.18   -9 LegendNANA
23:00 -9.2 -12.4 78 6 1   99.21   -10 LegendNANA

Notes on Data Quality.

Legend

  • E = Estimated
  • M = Missing
  • NA = Not Available
  • ‡ = Partner data that is not subject to review by the National Climate Archives
Date modified: